Year,Month,Day,Hour,Minute,Value (Times are PST for temperature in C)
2014,08,04,00,00,21.80
2014,08,04,00,01,21.70
2014,08,04,00,02,21.60
2014,08,04,00,03,21.50
2014,08,04,00,04,21.30
2014,08,04,00,05,21.30
2014,08,04,00,06,21.20
2014,08,04,00,07,21.10
2014,08,04,00,08,21.00
2014,08,04,00,09,20.90
2014,08,04,00,10,20.80
2014,08,04,00,11,20.70
2014,08,04,00,12,20.60
2014,08,04,00,13,20.60
2014,08,04,00,14,20.50
2014,08,04,00,15,20.40
2014,08,04,00,16,20.30
2014,08,04,00,17,20.30
2014,08,04,00,18,20.30
2014,08,04,00,19,20.30
2014,08,04,00,20,20.30
2014,08,04,00,21,20.30
2014,08,04,00,22,20.40
2014,08,04,00,23,20.40
2014,08,04,00,24,20.50
2014,08,04,00,25,20.50
2014,08,04,00,26,20.50
2014,08,04,00,27,20.60
2014,08,04,00,28,20.60
2014,08,04,00,29,20.70
2014,08,04,00,30,20.70
2014,08,04,00,31,20.70
2014,08,04,00,32,20.70
2014,08,04,00,33,20.80
2014,08,04,00,34,20.80
2014,08,04,00,35,20.80
2014,08,04,00,36,20.80
2014,08,04,00,37,20.70
2014,08,04,00,38,20.70
2014,08,04,00,39,20.60
2014,08,04,00,40,20.60
2014,08,04,00,41,20.50
2014,08,04,00,42,20.40
2014,08,04,00,43,20.30
2014,08,04,00,44,20.30
2014,08,04,00,45,20.20
2014,08,04,00,46,20.20
2014,08,04,00,47,20.10
2014,08,04,00,48,20.10
2014,08,04,00,49,20.00
2014,08,04,00,50,19.90
2014,08,04,00,51,19.90
2014,08,04,00,52,19.80
2014,08,04,00,53,19.80
2014,08,04,00,54,19.70
2014,08,04,00,55,19.60
2014,08,04,00,56,19.60
2014,08,04,00,57,19.50
2014,08,04,00,58,19.40
2014,08,04,00,59,19.40
2014,08,04,01,00,19.40
2014,08,04,01,01,19.30
2014,08,04,01,02,19.30
2014,08,04,01,03,19.30
2014,08,04,01,04,19.40
2014,08,04,01,05,19.40
2014,08,04,01,06,19.40
2014,08,04,01,07,19.50
2014,08,04,01,08,19.50
2014,08,04,01,09,19.50
2014,08,04,01,10,19.50
2014,08,04,01,11,19.50
2014,08,04,01,12,19.50
2014,08,04,01,13,19.40
2014,08,04,01,14,19.40
2014,08,04,01,15,19.30
2014,08,04,01,16,19.30
2014,08,04,01,17,19.20
2014,08,04,01,18,19.10
2014,08,04,01,19,19.00
2014,08,04,01,20,18.90
2014,08,04,01,21,18.80
2014,08,04,01,22,18.70
2014,08,04,01,23,18.70
2014,08,04,01,24,18.60
2014,08,04,01,25,18.50
2014,08,04,01,26,18.40
2014,08,04,01,27,18.40
2014,08,04,01,28,18.30
2014,08,04,01,29,18.20
2014,08,04,01,30,18.20
2014,08,04,01,31,18.10
2014,08,04,01,32,18.10
2014,08,04,01,33,18.00
2014,08,04,01,34,18.00
2014,08,04,01,35,17.90
2014,08,04,01,36,17.90
2014,08,04,01,37,17.80
2014,08,04,01,38,17.80
2014,08,04,01,39,17.80
2014,08,04,01,40,17.70
2014,08,04,01,41,17.70
2014,08,04,01,42,17.70
2014,08,04,01,43,17.60
2014,08,04,01,44,17.60
2014,08,04,01,45,17.60
2014,08,04,01,46,17.60
2014,08,04,01,47,17.50
2014,08,04,01,48,17.50
2014,08,04,01,49,17.40
2014,08,04,01,50,17.40
2014,08,04,01,51,17.40
2014,08,04,01,52,17.40
2014,08,04,01,53,17.40
2014,08,04,01,54,17.40
2014,08,04,01,55,17.50
2014,08,04,01,56,17.60
2014,08,04,01,57,17.70
2014,08,04,01,58,17.80
2014,08,04,01,59,17.90
2014,08,04,02,00,18.00
2014,08,04,02,01,18.10
2014,08,04,02,02,18.20
2014,08,04,02,03,18.30
2014,08,04,02,04,18.40
2014,08,04,02,05,18.50
2014,08,04,02,06,18.60
2014,08,04,02,07,18.60
2014,08,04,02,08,18.70
2014,08,04,02,09,18.80
2014,08,04,02,10,18.80
2014,08,04,02,11,18.80
2014,08,04,02,12,18.90
2014,08,04,02,13,18.90
2014,08,04,02,14,18.90
2014,08,04,02,15,18.90
2014,08,04,02,16,18.80
2014,08,04,02,17,18.80
2014,08,04,02,18,18.80
2014,08,04,02,19,18.70
2014,08,04,02,20,18.60
2014,08,04,02,21,18.60
2014,08,04,02,22,18.50
2014,08,04,02,23,18.40
2014,08,04,02,24,18.40
2014,08,04,02,25,18.30
2014,08,04,02,26,18.20
2014,08,04,02,27,18.10
2014,08,04,02,28,18.10
2014,08,04,02,29,18.00
2014,08,04,02,30,17.90
2014,08,04,02,31,17.80
2014,08,04,02,32,17.80
2014,08,04,02,33,17.70
2014,08,04,02,34,17.60
2014,08,04,02,35,17.60
2014,08,04,02,36,17.50
2014,08,04,02,37,17.50
2014,08,04,02,38,17.40
2014,08,04,02,39,17.40
2014,08,04,02,40,17.40
2014,08,04,02,41,17.30
2014,08,04,02,42,17.30
2014,08,04,02,43,17.20
2014,08,04,02,44,17.20
2014,08,04,02,45,17.10
2014,08,04,02,46,17.10
2014,08,04,02,47,17.00
2014,08,04,02,48,17.00
2014,08,04,02,49,16.90
2014,08,04,02,50,16.90
2014,08,04,02,51,16.90
2014,08,04,02,52,16.80
2014,08,04,02,53,16.80
2014,08,04,02,54,16.80
2014,08,04,02,55,16.70
2014,08,04,02,56,16.70
2014,08,04,02,57,16.60
2014,08,04,02,58,16.60
2014,08,04,02,59,16.60
2014,08,04,03,00,16.60
2014,08,04,03,01,16.50
2014,08,04,03,02,16.50
2014,08,04,03,03,16.40
2014,08,04,03,04,16.40
2014,08,04,03,05,16.40
2014,08,04,03,06,16.40
2014,08,04,03,07,16.40
2014,08,04,03,08,16.40
2014,08,04,03,09,16.30
2014,08,04,03,10,16.30
2014,08,04,03,11,16.30
2014,08,04,03,12,16.40
2014,08,04,03,13,16.40
2014,08,04,03,14,16.50
2014,08,04,03,15,16.60
2014,08,04,03,16,16.70
2014,08,04,03,17,16.70
2014,08,04,03,18,16.70
2014,08,04,03,19,16.80
2014,08,04,03,20,16.80
2014,08,04,03,21,16.80
2014,08,04,03,22,16.80
2014,08,04,03,23,16.80
2014,08,04,03,24,16.80
2014,08,04,03,25,16.80
2014,08,04,03,26,16.80
2014,08,04,03,27,16.80
2014,08,04,03,28,16.80
2014,08,04,03,29,16.80
2014,08,04,03,30,16.80
2014,08,04,03,31,16.80
2014,08,04,03,32,16.80
2014,08,04,03,33,16.90
2014,08,04,03,34,16.90
2014,08,04,03,35,16.90
2014,08,04,03,36,16.90
2014,08,04,03,37,16.90
2014,08,04,03,38,16.90
2014,08,04,03,39,16.90
2014,08,04,03,40,16.90
2014,08,04,03,41,16.90
2014,08,04,03,42,16.90
2014,08,04,03,43,16.80
2014,08,04,03,44,16.80
2014,08,04,03,45,16.80
2014,08,04,03,46,16.80
2014,08,04,03,47,16.80
2014,08,04,03,48,16.80
2014,08,04,03,49,16.80
2014,08,04,03,50,16.90
2014,08,04,03,51,16.90
2014,08,04,03,52,16.90
2014,08,04,03,53,17.00
2014,08,04,03,54,17.00
2014,08,04,03,55,17.10
2014,08,04,03,56,17.10
2014,08,04,03,57,17.10
2014,08,04,03,58,17.20
2014,08,04,03,59,17.20
2014,08,04,04,00,17.20
2014,08,04,04,01,17.20
2014,08,04,04,02,17.20
2014,08,04,04,03,17.20
2014,08,04,04,04,17.20
2014,08,04,04,05,17.10
2014,08,04,04,06,17.10
2014,08,04,04,07,17.10
2014,08,04,04,08,17.00
2014,08,04,04,09,16.90
2014,08,04,04,10,16.90
2014,08,04,04,11,16.80
2014,08,04,04,12,16.80
2014,08,04,04,13,16.80
2014,08,04,04,14,16.70
2014,08,04,04,15,16.60
2014,08,04,04,16,16.60
2014,08,04,04,17,16.50
2014,08,04,04,18,16.50
2014,08,04,04,19,16.50
2014,08,04,04,20,16.40
2014,08,04,04,21,16.40
2014,08,04,04,22,16.40
2014,08,04,04,23,16.40
2014,08,04,04,24,16.30
2014,08,04,04,25,16.30
2014,08,04,04,26,16.30
2014,08,04,04,27,16.20
2014,08,04,04,28,16.20
2014,08,04,04,29,16.20
2014,08,04,04,30,16.10
2014,08,04,04,31,16.10
2014,08,04,04,32,16.10
2014,08,04,04,33,16.00
2014,08,04,04,34,16.00
2014,08,04,04,35,15.90
2014,08,04,04,36,15.90
2014,08,04,04,37,15.90
2014,08,04,04,38,15.90
2014,08,04,04,39,15.80
2014,08,04,04,40,15.80
2014,08,04,04,41,15.80
2014,08,04,04,42,15.80
2014,08,04,04,43,15.70
2014,08,04,04,44,15.70
2014,08,04,04,45,15.70
2014,08,04,04,46,15.70
2014,08,04,04,47,15.70
2014,08,04,04,48,15.70
2014,08,04,04,49,15.70
2014,08,04,04,50,15.60
2014,08,04,04,51,15.60
2014,08,04,04,52,15.60
2014,08,04,04,53,15.60
2014,08,04,04,54,15.60
2014,08,04,04,55,15.60
2014,08,04,04,56,15.60
2014,08,04,04,57,15.60
2014,08,04,04,58,15.60
2014,08,04,04,59,15.60
2014,08,04,05,00,15.60
2014,08,04,05,01,15.60
2014,08,04,05,02,15.70
2014,08,04,05,03,15.70
2014,08,04,05,04,15.70
2014,08,04,05,05,15.80
2014,08,04,05,06,15.80
2014,08,04,05,07,15.90
2014,08,04,05,08,15.90
2014,08,04,05,09,15.90
2014,08,04,05,10,15.90
2014,08,04,05,11,15.90
2014,08,04,05,12,15.90
2014,08,04,05,13,15.90
2014,08,04,05,14,15.90
2014,08,04,05,15,15.80
2014,08,04,05,16,15.80
2014,08,04,05,17,15.80
2014,08,04,05,18,15.80
2014,08,04,05,19,15.80
2014,08,04,05,20,15.80
2014,08,04,05,21,15.80
2014,08,04,05,22,15.80
2014,08,04,05,23,15.90
2014,08,04,05,24,16.00
2014,08,04,05,25,16.10
2014,08,04,05,26,16.30
2014,08,04,05,27,16.40
2014,08,04,05,28,16.50
2014,08,04,05,29,16.60
2014,08,04,05,30,16.70
2014,08,04,05,31,16.80
2014,08,04,05,32,16.90
2014,08,04,05,33,17.00
2014,08,04,05,34,17.00
2014,08,04,05,35,17.10
2014,08,04,05,36,17.20
2014,08,04,05,37,17.20
2014,08,04,05,38,17.20
2014,08,04,05,39,17.20
2014,08,04,05,40,17.30
2014,08,04,05,41,17.30
2014,08,04,05,42,17.30
2014,08,04,05,43,17.30
2014,08,04,05,44,17.30
2014,08,04,05,45,17.30
2014,08,04,05,46,17.30
2014,08,04,05,47,17.30
2014,08,04,05,48,17.30
2014,08,04,05,49,17.30
2014,08,04,05,50,17.30
2014,08,04,05,51,17.20
2014,08,04,05,52,17.20
2014,08,04,05,53,17.20
2014,08,04,05,54,17.10
2014,08,04,05,55,17.10
2014,08,04,05,56,17.10
2014,08,04,05,57,17.10
2014,08,04,05,58,17.10
2014,08,04,05,59,17.10
2014,08,04,06,00,17.10
2014,08,04,06,01,17.10
2014,08,04,06,02,17.10
2014,08,04,06,03,17.00
2014,08,04,06,04,17.00
2014,08,04,06,05,17.00
2014,08,04,06,06,16.90
2014,08,04,06,07,16.90
2014,08,04,06,08,16.90
2014,08,04,06,09,16.90
2014,08,04,06,10,16.90
2014,08,04,06,11,16.90
2014,08,04,06,12,17.00
2014,08,04,06,13,17.00
2014,08,04,06,14,17.00
2014,08,04,06,15,17.00
2014,08,04,06,16,17.00
2014,08,04,06,17,17.00
2014,08,04,06,18,17.00
2014,08,04,06,19,17.00
2014,08,04,06,20,17.00
2014,08,04,06,21,17.00
2014,08,04,06,22,17.00
2014,08,04,06,23,17.00
2014,08,04,06,24,17.00
2014,08,04,06,25,17.00
2014,08,04,06,26,17.00
2014,08,04,06,27,17.10
2014,08,04,06,28,17.10
2014,08,04,06,29,17.10
2014,08,04,06,30,17.20
2014,08,04,06,31,17.20
2014,08,04,06,32,17.20
2014,08,04,06,33,17.20
2014,08,04,06,34,17.30
2014,08,04,06,35,17.30
2014,08,04,06,36,17.30
2014,08,04,06,37,17.40
2014,08,04,06,38,17.40
2014,08,04,06,39,17.40
2014,08,04,06,40,17.50
2014,08,04,06,41,17.50
2014,08,04,06,42,17.50
2014,08,04,06,43,17.50
2014,08,04,06,44,17.60
2014,08,04,06,45,17.60
2014,08,04,06,46,17.60
2014,08,04,06,47,17.60
2014,08,04,06,48,17.60
2014,08,04,06,49,17.60
2014,08,04,06,50,17.60
2014,08,04,06,51,17.60
2014,08,04,06,52,17.60
2014,08,04,06,53,17.70
2014,08,04,06,54,17.70
2014,08,04,06,55,17.70
2014,08,04,06,56,17.80
2014,08,04,06,57,17.80
2014,08,04,06,58,17.90
2014,08,04,06,59,17.90
2014,08,04,07,00,18.00
2014,08,04,07,01,18.00
2014,08,04,07,02,18.10
2014,08,04,07,03,18.10
2014,08,04,07,04,18.20
2014,08,04,07,05,18.20
2014,08,04,07,06,18.20
2014,08,04,07,07,18.30
2014,08,04,07,08,18.30
2014,08,04,07,09,18.30
2014,08,04,07,10,18.30
2014,08,04,07,11,18.40
2014,08,04,07,12,18.40
2014,08,04,07,13,18.40
2014,08,04,07,14,18.50
2014,08,04,07,15,18.50
2014,08,04,07,16,18.60
2014,08,04,07,17,18.60
2014,08,04,07,18,18.60
2014,08,04,07,19,18.70
2014,08,04,07,20,18.70
2014,08,04,07,21,18.70
2014,08,04,07,22,18.80
2014,08,04,07,23,18.80
2014,08,04,07,24,18.80
2014,08,04,07,25,18.90
2014,08,04,07,26,18.90
2014,08,04,07,27,18.90
2014,08,04,07,28,19.00
2014,08,04,07,29,19.10
2014,08,04,07,30,19.10
2014,08,04,07,31,19.10
2014,08,04,07,32,19.20
2014,08,04,07,33,19.20
2014,08,04,07,34,19.20
2014,08,04,07,35,19.30
2014,08,04,07,36,19.30
2014,08,04,07,37,19.30
2014,08,04,07,38,19.30
2014,08,04,07,39,19.40
2014,08,04,07,40,19.40
2014,08,04,07,41,19.40
2014,08,04,07,42,19.50
2014,08,04,07,43,19.50
2014,08,04,07,44,19.50
2014,08,04,07,45,19.60
2014,08,04,07,46,19.60
2014,08,04,07,47,19.60
2014,08,04,07,48,19.70
2014,08,04,07,49,19.70
2014,08,04,07,50,19.70
2014,08,04,07,51,19.70
2014,08,04,07,52,19.70
2014,08,04,07,53,19.80
2014,08,04,07,54,19.80
2014,08,04,07,55,19.80
2014,08,04,07,56,19.90
2014,08,04,07,57,19.90
2014,08,04,07,58,19.90
2014,08,04,07,59,20.00
2014,08,04,08,00,20.00
2014,08,04,08,01,20.00
2014,08,04,08,02,20.00
2014,08,04,08,03,20.10
2014,08,04,08,04,20.10
2014,08,04,08,05,20.10
2014,08,04,08,06,20.10
2014,08,04,08,07,20.10
2014,08,04,08,08,20.20
2014,08,04,08,09,20.20
2014,08,04,08,10,20.20
2014,08,04,08,11,20.20
2014,08,04,08,12,20.20
2014,08,04,08,13,20.20
2014,08,04,08,14,20.20
2014,08,04,08,15,20.20
2014,08,04,08,16,20.20
2014,08,04,08,17,20.20
2014,08,04,08,18,20.20
2014,08,04,08,19,20.20
2014,08,04,08,20,20.30
2014,08,04,08,21,20.30
2014,08,04,08,22,20.30
2014,08,04,08,23,20.30
2014,08,04,08,24,20.40
2014,08,04,08,25,20.40
2014,08,04,08,26,20.50
2014,08,04,08,27,20.50
2014,08,04,08,28,20.60
2014,08,04,08,29,20.60
2014,08,04,08,30,20.70
2014,08,04,08,31,20.60
2014,08,04,08,32,20.70
2014,08,04,08,33,20.60
2014,08,04,08,34,20.60
2014,08,04,08,35,20.60
2014,08,04,08,36,20.60
2014,08,04,08,37,20.60
2014,08,04,08,38,20.60
2014,08,04,08,39,20.60
2014,08,04,08,40,20.70
2014,08,04,08,41,20.70
2014,08,04,08,42,20.80
2014,08,04,08,43,20.80
2014,08,04,08,44,20.80
2014,08,04,08,45,20.80
2014,08,04,08,46,20.80
2014,08,04,08,47,20.80
2014,08,04,08,48,20.80
2014,08,04,08,49,20.80
2014,08,04,08,50,20.80
2014,08,04,08,51,20.80
2014,08,04,08,52,20.80
2014,08,04,08,53,20.80
2014,08,04,08,54,20.80
2014,08,04,08,55,20.90
2014,08,04,08,56,20.90
2014,08,04,08,57,20.90
2014,08,04,08,58,20.90
2014,08,04,08,59,20.90
2014,08,04,09,00,20.90
2014,08,04,09,01,20.90
2014,08,04,09,02,20.90
2014,08,04,09,03,20.90
2014,08,04,09,04,20.90
2014,08,04,09,05,21.00
2014,08,04,09,06,21.00
2014,08,04,09,07,21.00
2014,08,04,09,08,21.10
2014,08,04,09,09,21.10
2014,08,04,09,10,21.10
2014,08,04,09,11,21.10
2014,08,04,09,12,21.20
2014,08,04,09,13,21.20
2014,08,04,09,14,21.20
2014,08,04,09,15,21.30
2014,08,04,09,16,21.30
2014,08,04,09,17,21.30
2014,08,04,09,18,21.30
2014,08,04,09,19,21.20
2014,08,04,09,20,21.30
2014,08,04,09,21,21.30
2014,08,04,09,22,21.30
2014,08,04,09,23,21.30
2014,08,04,09,24,21.30
2014,08,04,09,25,21.30
2014,08,04,09,26,21.20
2014,08,04,09,27,21.20
2014,08,04,09,28,21.10
2014,08,04,09,29,21.10
2014,08,04,09,30,21.00
2014,08,04,09,31,20.90
2014,08,04,09,32,20.90
2014,08,04,09,33,21.00
2014,08,04,09,34,21.00
2014,08,04,09,35,21.10
2014,08,04,09,36,21.10
2014,08,04,09,37,21.10
2014,08,04,09,38,21.10
2014,08,04,09,39,21.10
2014,08,04,09,40,21.00
2014,08,04,09,41,21.00
2014,08,04,09,42,20.90
2014,08,04,09,43,20.80
2014,08,04,09,44,20.80
2014,08,04,09,45,20.60
2014,08,04,09,46,20.50
2014,08,04,09,47,20.40
2014,08,04,09,48,20.30
2014,08,04,09,49,20.30
2014,08,04,09,50,20.20
2014,08,04,09,51,20.20
2014,08,04,09,52,20.20
2014,08,04,09,53,20.20
2014,08,04,09,54,20.20
2014,08,04,09,55,20.20
2014,08,04,09,56,20.20
2014,08,04,09,57,20.20
2014,08,04,09,58,20.20
2014,08,04,09,59,20.20
2014,08,04,10,00,20.20
2014,08,04,10,01,20.30
2014,08,04,10,02,20.30
2014,08,04,10,03,20.30
2014,08,04,10,04,20.30
2014,08,04,10,05,20.20
2014,08,04,10,06,20.20
2014,08,04,10,07,20.30
2014,08,04,10,08,20.30
2014,08,04,10,09,20.30
2014,08,04,10,10,20.40
2014,08,04,10,11,20.40
2014,08,04,10,12,20.50
2014,08,04,10,13,20.60
2014,08,04,10,14,20.60
2014,08,04,10,15,20.60
2014,08,04,10,16,20.60
2014,08,04,10,17,20.60
2014,08,04,10,18,20.50
2014,08,04,10,19,20.50
2014,08,04,10,20,20.40
2014,08,04,10,21,20.50
2014,08,04,10,22,20.40
2014,08,04,10,23,20.40
2014,08,04,10,24,20.30
2014,08,04,10,25,20.30
2014,08,04,10,26,20.30
2014,08,04,10,27,20.30
2014,08,04,10,28,20.40
2014,08,04,10,29,20.50
2014,08,04,10,30,20.60
2014,08,04,10,31,20.70
2014,08,04,10,32,20.70
2014,08,04,10,33,20.80
2014,08,04,10,34,20.80
2014,08,04,10,35,20.80
2014,08,04,10,36,20.80
2014,08,04,10,37,20.80
2014,08,04,10,38,20.80
2014,08,04,10,39,20.80
2014,08,04,10,40,20.80
2014,08,04,10,41,20.80
2014,08,04,10,42,20.80
2014,08,04,10,43,20.80
2014,08,04,10,44,20.80
2014,08,04,10,45,20.80
2014,08,04,10,46,20.80
2014,08,04,10,47,20.80
2014,08,04,10,48,20.70
2014,08,04,10,49,20.70
2014,08,04,10,50,20.70
2014,08,04,10,51,20.70
2014,08,04,10,52,20.80
2014,08,04,10,53,20.80
2014,08,04,10,54,20.80
2014,08,04,10,55,20.80
2014,08,04,10,56,20.80
2014,08,04,10,57,20.80
2014,08,04,10,58,20.90
2014,08,04,10,59,20.90
2014,08,04,11,00,20.80
2014,08,04,11,01,20.80
2014,08,04,11,02,20.70
2014,08,04,11,03,20.70
2014,08,04,11,04,20.70
2014,08,04,11,05,20.70
2014,08,04,11,06,20.70
2014,08,04,11,07,20.70
2014,08,04,11,08,20.70
2014,08,04,11,09,20.70
2014,08,04,11,10,20.60
2014,08,04,11,11,20.60
2014,08,04,11,12,20.50
2014,08,04,11,13,20.40
2014,08,04,11,14,20.40
2014,08,04,11,15,20.40
2014,08,04,11,16,20.40
2014,08,04,11,17,20.40
2014,08,04,11,18,20.40
2014,08,04,11,19,20.40
2014,08,04,11,20,20.40
2014,08,04,11,21,20.50
2014,08,04,11,22,20.50
2014,08,04,11,23,20.40
2014,08,04,11,24,20.40
2014,08,04,11,25,20.40
2014,08,04,11,26,20.40
2014,08,04,11,27,20.50
2014,08,04,11,28,20.50
2014,08,04,11,29,20.60
2014,08,04,11,30,20.60
2014,08,04,11,31,20.70
2014,08,04,11,32,20.70
2014,08,04,11,33,20.80
2014,08,04,11,34,20.80
2014,08,04,11,35,20.80
2014,08,04,11,36,20.80
2014,08,04,11,37,20.80
2014,08,04,11,38,20.80
2014,08,04,11,39,20.90
2014,08,04,11,40,20.90
2014,08,04,11,41,21.00
2014,08,04,11,42,21.00
2014,08,04,11,43,21.00
2014,08,04,11,44,21.00
2014,08,04,11,45,20.90
2014,08,04,11,46,20.90
2014,08,04,11,47,20.90
2014,08,04,11,48,20.80
2014,08,04,11,49,20.80
2014,08,04,11,50,20.70
2014,08,04,11,51,20.60
2014,08,04,11,52,20.60
2014,08,04,11,53,20.60
2014,08,04,11,54,20.60
2014,08,04,11,55,20.70
2014,08,04,11,56,20.70
2014,08,04,11,57,20.70
2014,08,04,11,58,20.70
2014,08,04,11,59,20.80
2014,08,04,12,00,20.90
2014,08,04,12,01,20.90
2014,08,04,12,02,21.00
2014,08,04,12,03,21.10
2014,08,04,12,04,21.10
2014,08,04,12,05,21.20
2014,08,04,12,06,21.30
2014,08,04,12,07,21.30
2014,08,04,12,08,21.30
2014,08,04,12,09,21.30
2014,08,04,12,10,21.30
2014,08,04,12,11,21.40
2014,08,04,12,12,21.40
2014,08,04,12,13,21.50
2014,08,04,12,14,21.50
2014,08,04,12,15,21.50
2014,08,04,12,16,21.60
2014,08,04,12,17,21.60
2014,08,04,12,18,21.60
2014,08,04,12,19,21.60
2014,08,04,12,20,21.60
2014,08,04,12,21,21.60
2014,08,04,12,22,21.60
2014,08,04,12,23,21.60
2014,08,04,12,24,21.70
2014,08,04,12,25,21.70
2014,08,04,12,26,21.70
2014,08,04,12,27,21.70
2014,08,04,12,28,21.80
2014,08,04,12,29,21.80
2014,08,04,12,30,21.70
2014,08,04,12,31,21.70
2014,08,04,12,32,21.80
2014,08,04,12,33,21.80
2014,08,04,12,34,21.80
2014,08,04,12,35,21.90
2014,08,04,12,36,21.90
2014,08,04,12,37,21.90
2014,08,04,12,38,22.00
2014,08,04,12,39,22.00
2014,08,04,12,40,22.10
2014,08,04,12,41,22.10
2014,08,04,12,42,22.20
2014,08,04,12,43,22.30
2014,08,04,12,44,22.30
2014,08,04,12,45,22.40
2014,08,04,12,46,22.40
2014,08,04,12,47,22.40
2014,08,04,12,48,22.50
2014,08,04,12,49,22.50
2014,08,04,12,50,22.50
2014,08,04,12,51,22.50
2014,08,04,12,52,22.60
2014,08,04,12,53,22.60
2014,08,04,12,54,22.60
2014,08,04,12,55,22.60
2014,08,04,12,56,22.60
2014,08,04,12,57,22.60
2014,08,04,12,58,22.60
2014,08,04,12,59,22.50
2014,08,04,13,00,22.60
2014,08,04,13,01,22.60
2014,08,04,13,02,22.50
2014,08,04,13,03,22.50
2014,08,04,13,04,22.50
2014,08,04,13,05,22.50
2014,08,04,13,06,22.40
2014,08,04,13,07,22.40
2014,08,04,13,08,22.40
2014,08,04,13,09,22.40
2014,08,04,13,10,22.40
2014,08,04,13,11,22.40
2014,08,04,13,12,22.40
2014,08,04,13,13,22.40
2014,08,04,13,14,22.50
2014,08,04,13,15,22.50
2014,08,04,13,16,22.50
2014,08,04,13,17,22.50
2014,08,04,13,18,22.50
2014,08,04,13,19,22.40
2014,08,04,13,20,22.40
2014,08,04,13,21,22.40
2014,08,04,13,22,22.50
2014,08,04,13,23,22.50
2014,08,04,13,24,22.60
2014,08,04,13,25,22.60
2014,08,04,13,26,22.60
2014,08,04,13,27,22.70
2014,08,04,13,28,22.70
2014,08,04,13,29,22.70
2014,08,04,13,30,22.70
2014,08,04,13,31,22.60
2014,08,04,13,32,22.60
2014,08,04,13,33,22.60
2014,08,04,13,34,22.50
2014,08,04,13,35,22.40
2014,08,04,13,36,22.40
2014,08,04,13,37,22.40
2014,08,04,13,38,22.40
2014,08,04,13,39,22.40
2014,08,04,13,40,22.50
2014,08,04,13,41,22.50
2014,08,04,13,42,22.50
2014,08,04,13,43,22.60
2014,08,04,13,44,22.60
2014,08,04,13,45,22.70
2014,08,04,13,46,22.70
2014,08,04,13,47,22.80
2014,08,04,13,48,22.80
2014,08,04,13,49,22.80
2014,08,04,13,50,22.80
2014,08,04,13,51,22.80
2014,08,04,13,52,22.80
2014,08,04,13,53,22.90
2014,08,04,13,54,23.00
2014,08,04,13,55,23.10
2014,08,04,13,56,23.10
2014,08,04,13,57,23.20
2014,08,04,13,58,23.20
2014,08,04,13,59,23.20
2014,08,04,14,00,23.20
2014,08,04,14,01,23.20
2014,08,04,14,02,23.20
2014,08,04,14,03,23.10
2014,08,04,14,04,23.10
2014,08,04,14,05,23.10
2014,08,04,14,06,23.10
2014,08,04,14,07,23.10
2014,08,04,14,08,23.10
2014,08,04,14,09,23.20
2014,08,04,14,10,23.20
2014,08,04,14,11,23.20
2014,08,04,14,12,23.20
2014,08,04,14,13,23.20
2014,08,04,14,14,23.20
2014,08,04,14,15,23.20
2014,08,04,14,16,23.20
2014,08,04,14,17,23.20
2014,08,04,14,18,23.20
2014,08,04,14,19,23.20
2014,08,04,14,20,23.20
2014,08,04,14,21,23.20
2014,08,04,14,22,23.20
2014,08,04,14,23,23.20
2014,08,04,14,24,23.20
2014,08,04,14,25,23.20
2014,08,04,14,26,23.20
2014,08,04,14,27,23.20
2014,08,04,14,28,23.30
2014,08,04,14,29,23.30
2014,08,04,14,30,23.30
2014,08,04,14,31,23.30
2014,08,04,14,32,23.30
2014,08,04,14,33,23.30
2014,08,04,14,34,23.40
2014,08,04,14,35,23.30
2014,08,04,14,36,23.30
2014,08,04,14,37,23.30
2014,08,04,14,38,23.30
2014,08,04,14,39,23.30
2014,08,04,14,40,23.40
2014,08,04,14,41,23.40
2014,08,04,14,42,23.50
2014,08,04,14,43,23.50
2014,08,04,14,44,23.60
2014,08,04,14,45,23.70
2014,08,04,14,46,23.70
2014,08,04,14,47,23.80
2014,08,04,14,48,23.80
2014,08,04,14,49,23.80
2014,08,04,14,50,23.80
2014,08,04,14,51,23.90
2014,08,04,14,52,23.90
2014,08,04,14,53,23.90
2014,08,04,14,54,24.00
2014,08,04,14,55,24.10
2014,08,04,14,56,24.10
2014,08,04,14,57,24.20
2014,08,04,14,58,24.30
2014,08,04,14,59,24.40
2014,08,04,15,00,24.50
2014,08,04,15,01,24.60
2014,08,04,15,02,24.70
2014,08,04,15,03,24.80
2014,08,04,15,04,24.90
2014,08,04,15,05,25.00
2014,08,04,15,06,25.10
2014,08,04,15,07,25.10
2014,08,04,15,08,25.10
2014,08,04,15,09,25.20
2014,08,04,15,10,25.20
2014,08,04,15,11,25.20
2014,08,04,15,12,25.20
2014,08,04,15,13,25.20
2014,08,04,15,14,25.20
2014,08,04,15,15,25.20
2014,08,04,15,16,25.20
2014,08,04,15,17,25.20
2014,08,04,15,18,25.20
2014,08,04,15,19,25.20
2014,08,04,15,20,25.20
2014,08,04,15,21,25.10
2014,08,04,15,22,25.00
2014,08,04,15,23,24.90
2014,08,04,15,24,24.80
2014,08,04,15,25,24.70
2014,08,04,15,26,24.70
2014,08,04,15,27,24.60
2014,08,04,15,28,24.60
2014,08,04,15,29,24.60
2014,08,04,15,30,24.60
2014,08,04,15,31,24.60
2014,08,04,15,32,24.50
2014,08,04,15,33,24.50
2014,08,04,15,34,24.50
2014,08,04,15,35,24.50
2014,08,04,15,36,24.60
2014,08,04,15,37,24.60
2014,08,04,15,38,24.70
2014,08,04,15,39,24.80
2014,08,04,15,40,24.90
2014,08,04,15,41,24.90
2014,08,04,15,42,24.90
2014,08,04,15,43,24.90
2014,08,04,15,44,24.90
2014,08,04,15,45,24.90
2014,08,04,15,46,24.90
2014,08,04,15,47,25.00
2014,08,04,15,48,25.00
2014,08,04,15,49,25.00
2014,08,04,15,50,25.10
2014,08,04,15,51,25.10
2014,08,04,15,52,25.20
2014,08,04,15,53,25.20
2014,08,04,15,54,25.30
2014,08,04,15,55,25.30
2014,08,04,15,56,25.40
2014,08,04,15,57,25.50
2014,08,04,15,58,25.70
2014,08,04,15,59,25.80
2014,08,04,16,00,25.90
2014,08,04,16,01,25.90
2014,08,04,16,02,26.00
2014,08,04,16,03,26.10
2014,08,04,16,04,26.20
2014,08,04,16,05,26.20
2014,08,04,16,06,26.20
2014,08,04,16,07,26.20
2014,08,04,16,08,26.20
2014,08,04,16,09,26.20
2014,08,04,16,10,26.30
2014,08,04,16,11,26.20
2014,08,04,16,12,26.20
2014,08,04,16,13,26.20
2014,08,04,16,14,26.20
2014,08,04,16,15,26.20
2014,08,04,16,16,26.20
2014,08,04,16,17,26.20
2014,08,04,16,18,26.20
2014,08,04,16,19,26.30
2014,08,04,16,20,26.30
2014,08,04,16,21,26.30
2014,08,04,16,22,26.30
2014,08,04,16,23,26.30
2014,08,04,16,24,26.40
2014,08,04,16,25,26.40
2014,08,04,16,26,26.40
2014,08,04,16,27,26.40
2014,08,04,16,28,26.40
2014,08,04,16,29,26.40
2014,08,04,16,30,26.40
2014,08,04,16,31,26.40
2014,08,04,16,32,26.40
2014,08,04,16,33,26.40
2014,08,04,16,34,26.40
2014,08,04,16,35,26.30
2014,08,04,16,36,26.30
2014,08,04,16,37,26.30
2014,08,04,16,38,26.30
2014,08,04,16,39,26.30
2014,08,04,16,40,26.30
2014,08,04,16,41,26.30
2014,08,04,16,42,26.20
2014,08,04,16,43,26.20
2014,08,04,16,44,26.20
2014,08,04,16,45,26.20
2014,08,04,16,46,26.20
2014,08,04,16,47,26.10
2014,08,04,16,48,26.10
2014,08,04,16,49,26.10
2014,08,04,16,50,26.00
2014,08,04,16,51,26.00
2014,08,04,16,52,26.00
2014,08,04,16,53,26.10
2014,08,04,16,54,26.00
2014,08,04,16,55,26.00
2014,08,04,16,56,26.10
2014,08,04,16,57,26.10
2014,08,04,16,58,26.20
2014,08,04,16,59,26.20
2014,08,04,17,00,26.20
2014,08,04,17,01,26.20
2014,08,04,17,02,26.30
2014,08,04,17,03,26.30
2014,08,04,17,04,26.40
2014,08,04,17,05,26.40
2014,08,04,17,06,26.40
2014,08,04,17,07,26.50
2014,08,04,17,08,26.50
2014,08,04,17,09,26.60
2014,08,04,17,10,26.60
2014,08,04,17,11,26.60
2014,08,04,17,12,26.60
2014,08,04,17,13,26.60
2014,08,04,17,14,26.60
2014,08,04,17,15,26.70
2014,08,04,17,16,26.70
2014,08,04,17,17,26.70
2014,08,04,17,18,26.70
2014,08,04,17,19,26.70